Weather in Niagara Falls

Canada     43°05′24″N   79°05′01″W
temp.,
°C
wind,
m/s
gust,
m/s
humid.,
%
clouds,
%
prec.,
mm/h
press.,
hPa
HPBL,
m
10 may, mon
mon1023:00+6nnw1395100 0.3 1013209
02:00+4nnw26944 0.3 1013191
05:00+3wnw23874 0.0 101562
08:00+5w26805 0.0 1016229
11:00+11w46475 0.0 10161598
14:00+12wsw674488 0.0 10152084
17:00+11wsw575391 0.1 10161411
20:00+9nw49575 0.2 10171032
11 may, tue
tue1123:00+5wnw310643 0.0 1018409
02:00+4wnw396517 0.0 1018292
05:00+2w2772100 0.0 1019243
08:00+4w49655 0.0 1020488
11:00+9w6104889 0.1 10192084
14:00+9w71047100 0.3 10192333
17:00+9wnw81159100 0.6 10191696
20:00+5wnw697588 0.7 10211005
12 may, wed
wed1223:00+5wnw51181100 0.1 1023797
02:00+3w39875 0.1 1023422
05:00+3w38901 0.0 1024326
08:00+5nw36765 0.0 1026440
11:00+11nw46555 0.0 1026928
14:00+14nw46414 0.0 10261871
17:00+14nw57340 0.0 10251954
20:00+10nw28492 0.0 1026368
13 may, thu
thu1323:00+7wnw25642 0.0 1028130
02:00+6w22705 0.0 102854
05:00+5sw227020 0.0 102842
08:00+8wsw235889 0.0 1029219
11:00+13wsw22484 0.0 1029754
14:00+16w23414 0.0 10271675
17:00+16sw33433 0.0 10261365
20:00+11sw36684 0.0 1026207
14 may, fri
fri1423:00+8ssw26795 0.0 1027134
02:00+7ssw248526 0.0 1026102
05:00+6ssw238546 0.0 102671
08:00+10sw237299 0.0 1027201
11:00+15sw2256100 0.0 1027723
14:00+18sw2145100 0.2 10241542
17:00+17wsw215395 0.8 10241149
20:00+12ssw248198 1.1 1024105